[[{"header":{"parameterUnit":"m.s-1","parameterCategory":1,"la1":30.2991,"la2":30.254,"lo1":-89.0895,"lo2":-89.0444,"dy":0.0017,"dx":0.0017,"nx":28,"ny":28,"refTime":"2025-02-11T03:00:00:Z","depth":0,"parameterNumber":2,"parameterNumberName":"U-component_of_WINDS"},"data":[0,0,0,0,0,0,0,0,0,0,0,0,0,0,0,0,0,0,0,0,0,0,0,0,0,0,0,0,0,0,0,0,0,0,0,0,0,0,0,0,0,0,0,0,0,0,0,0,0,0,0,0,0,0,0,0,0,0,2.2654,2.2657,0,2.2934,2.2937,2.2941,2.2993,2.2991,2.2989,2.2987,2.3278,2.3288,2.3298,0,0,0,0,0,0,0,0,0,0,0,0,0,2.217,2.2178,2.2654,2.2657,2.2661,2.2934,2.2938,2.2941,2.2994,2.2991,2.2988,2.2985,2.3275,2.3287,2.3299,0,0,0,0,0,0,0,0,0,0,0,0,0,2.2408,2.2181,2.2653,2.272,2.2728,2.2933,2.2938,2.2942,2.2994,2.2991,2.2987,2.2984,2.3271,2.3286,2.33,2.346,0,0,2.3346,2.3352,0,0,0,0,0,0,0,0,2.2394,2.2426,2.2706,2.2715,2.2725,2.2925,2.2874,2.3116,2.2995,2.2893,2.2986,2.2983,2.3164,2.3187,2.3248,2.3474,2.3486,2.3347,2.3356,2.3362,2.3367,0,0,0,0,0,0,0,2.2378,2.2414,2.2765,2.271,2.2722,2.2737,2.2768,2.292,2.3045,2.2902,2.2906,2.2939,2.3169,2.3233,2.3255,2.349,2.3347,2.336,2.3369,2.3375,2.3864,2.3868,0,0,0,0,0,0,2.2349,2.24,2.2756,2.2773,2.2548,2.2749,2.2783,2.2865,2.3043,2.3067,2.2941,2.294,2.321,2.3237,2.3265,2.3465,2.3362,2.3376,2.3385,2.386,2.3865,2.387,0,0,0,0,0,0,2.2338,2.238,2.2745,2.2588,2.2636,2.2761,2.2853,2.2872,2.2936,2.3073,2.3096,2.2984,2.3208,2.3244,2.3411,2.3476,2.3383,2.3396,2.3855,2.3862,2.3867,2.3865,0,0,0,0,0,0,2.2324,2.2376,2.2436,2.2589,2.2644,2.2884,2.2857,2.288,2.2961,2.2962,2.3119,2.3141,2.3208,2.3389,2.3426,2.3495,2.3408,2.385,2.3858,2.3865,2.386,2.3871,2.388,0,0,0,0,0,2.2307,2.2425,2.2439,2.2481,2.2721,2.2887,2.2919,2.2992,2.2966,2.3029,2.3117,2.3136,2.3463,2.3406,2.3448,2.3522,2.3846,2.3856,2.3865,2.3856,2.3869,2.3879,0,0,0,0,0,0,2.2277,2.2446,2.2463,2.2634,2.2746,2.2896,2.2977,2.3003,2.3125,2.3121,2.3208,2.3243,2.3406,2.3481,2.3414,2.3687,2.3653,2.3671,2.3632,2.3645,2.3655,2.3633,2.342,0,0,0,0,0,2.229,2.241,2.2551,2.2689,2.2744,2.2851,2.2926,2.2972,2.3092,2.314,2.324,2.3358,2.3487,2.357,2.3697,2.3872,2.3908,2.3944,2.3953,2.3961,2.3975,2.4076,2.4094,2.39,2.39,2.39,0,0,2.2319,2.2426,2.2496,2.2685,2.2777,2.2901,2.289,2.3021,2.3114,2.3161,2.3324,2.3402,2.3539,2.3711,2.3792,2.3779,2.4037,2.3972,2.3977,2.3988,2.4087,2.4105,2.4121,2.3906,2.3905,2.3904,0,0,2.2435,2.2527,2.2652,2.2745,2.2885,2.2955,2.2985,2.3133,2.3186,2.3351,2.3389,2.3503,2.3723,2.3819,2.3897,2.4052,2.4076,2.4091,2.4142,2.4239,2.4254,2.4268,2.4324,2.4343,2.4105,2.4105,2.4106,0,2.2453,2.2639,2.2714,2.2844,2.2927,2.2974,2.3103,2.319,2.3364,2.3421,2.3404,2.3682,2.3778,2.3974,2.4012,2.4073,2.4112,2.4073,2.4245,2.426,2.4274,2.4329,2.435,2.4106,2.4106,2.4106,2.4106,0,2.2656,2.2785,2.287,2.3036,2.3129,2.3257,2.3353,2.3439,2.3478,2.3551,2.3721,2.3837,2.3988,2.4039,2.4078,2.4242,2.4229,2.4227,2.4195,2.4292,2.4346,2.4367,2.4108,2.4108,2.4107,2.4107,0,0,2.2759,2.2966,2.2996,2.3073,2.3232,2.3334,2.3466,2.3613,2.3686,2.3805,2.3919,2.4106,2.4106,2.4194,2.4246,2.433,2.4447,2.4319,2.4324,2.4339,2.4636,2.4636,2.4659,2.4464,2.4468,2.4472,2.4625,0,2.2894,2.313,2.3202,2.34,2.3521,2.3569,2.3685,2.3796,2.3868,2.3984,2.4065,2.4196,2.4185,2.4239,2.4325,2.4415,2.4508,2.4405,2.4573,2.4578,2.4537,2.4687,2.4688,2.4826,2.4646,2.465,2.4652,0,2.3083,2.3205,2.3415,2.356,2.3614,2.3716,2.3858,2.3967,2.4095,2.4142,2.4241,2.4286,2.4429,2.4388,2.4587,2.4514,2.4588,2.4643,2.465,2.4669,2.4621,2.471,2.4872,2.4893,2.4686,2.4683,2.4681,0,2.3138,2.3355,2.351,2.3574,2.3747,2.3818,2.3894,2.4018,2.4103,2.4228,2.4284,2.4424,2.4501,2.461,2.4692,2.4655,2.4884,2.485,2.4929,2.4927,2.4974,2.497,2.5151,2.5021,2.5021,2.502,2.502,0,2.3282,2.3408,2.3537,2.3632,2.3776,2.3859,2.4,2.4079,2.419,2.4302,2.4353,2.4458,2.456,2.468,2.4745,2.49,2.4935,2.4978,2.4994,2.4974,2.4968,2.5023,2.5016,2.5026,2.5025,2.5024,2.5023,0,2.3368,2.3458,2.363,2.378,2.3821,2.3921,2.4051,2.4146,2.4221,2.4363,2.4401,2.452,2.4663,2.4756,2.4939,2.4983,2.5153,2.5166,2.5109,2.5117,2.519,2.5182,2.5412,2.5447,2.5293,2.5295,2.5296,0,2.3453,2.3552,2.3713,2.3791,2.3867,2.3993,2.408,2.4167,2.4255,2.441,2.4487,2.4633,2.4755,2.4981,2.5085,2.5226,2.5243,2.5314,2.5265,2.5242,2.5245,2.5238,2.5249,2.5322,2.5323,2.5324,2.5325,0,2.3595,2.3636,2.3758,2.3898,2.4,2.4114,2.4228,2.429,2.4397,2.4494,2.464,2.4735,2.4922,2.5067,2.5217,2.5298,2.533,2.534,2.5366,2.5346,2.5309,2.5331,2.5131,2.5334,2.5333,2.5333,2.5332,2.5332,2.3684,2.3775,2.3903,2.4038,2.4134,2.424,2.4337,2.4425,2.4548,2.4706,2.475,2.4903,2.5032,2.5237,2.532,2.5443,2.5435,2.5472,2.5481,2.5489,2.549,2.5289,2.5471,2.5471,2.547,2.547,2.547,0,2.383,2.3915,2.4039,2.4197,2.4304,2.4325,2.4453,2.4542,2.4676,2.4792,2.4911,2.508,2.5222,2.5337,2.5484,2.556,2.5579,2.5596,2.5591,2.5609,2.5489,2.5452,2.5578,2.5578,2.5578,2.5578,2.5578,2.5578,2.3918,2.4073,2.4129,2.4333,2.4418,2.4568,2.4639,2.4738,2.4832,2.5018,2.5136,2.521,2.5327,2.5483,2.5615,2.5645,2.5697,2.5711,2.5745,2.563,2.5618,2.5606,2.5572,2.5721,2.5722,2.5856,2.5857,2.5858]},{"header":{"parameterUnit":"m.s-1","parameterCategory":1,"la1":30.2991,"la2":30.254,"lo1":-89.0895,"lo2":-89.0444,"dy":0.0017,"dx":0.0017,"nx":28,"ny":28,"refTime":"2025-02-11T03:00:00:Z","depth":0,"parameterNumber":3,"parameterNumberName":"V-component_of_WINDS"},"data":[0,0,0,0,0,0,0,0,0,0,0,0,0,0,0,0,0,0,0,0,0,0,0,0,0,0,0,0,0,0,0,0,0,0,0,0,0,0,0,0,0,0,0,0,0,0,0,0,0,0,0,0,0,0,0,0,0,0,3.5281,3.5284,0,3.5575,3.5578,3.5581,3.5672,3.5671,3.567,3.5668,3.5972,3.5981,3.599,0,0,0,0,0,0,0,0,0,0,0,0,0,3.4803,3.4811,3.5281,3.5285,3.5288,3.5574,3.5578,3.5582,3.5673,3.5671,3.5669,3.5668,3.5969,3.598,3.5991,0,0,0,0,0,0,0,0,0,0,0,0,0,3.5045,3.4814,3.528,3.5368,3.5379,3.5573,3.5578,3.5583,3.5673,3.5671,3.5669,3.5667,3.5965,3.5979,3.5993,3.6123,0,0,3.6036,3.6042,0,0,0,0,0,0,0,0,3.5031,3.5062,3.5351,3.5362,3.5375,3.5585,3.5521,3.5764,3.5674,3.5561,3.5668,3.5666,3.5845,3.5869,3.5929,3.6137,3.615,3.6037,3.6046,3.6052,3.6056,0,0,0,0,0,0,0,3.5014,3.505,3.5397,3.5355,3.537,3.5394,3.5426,3.5568,3.5712,3.5571,3.5578,3.5612,3.5851,3.5915,3.5937,3.6154,3.6037,3.6049,3.6058,3.6064,3.6486,3.6489,0,0,0,0,0,0,3.4982,3.5036,3.5388,3.5406,3.5194,3.5404,3.544,3.5519,3.571,3.5737,3.5613,3.5615,3.5892,3.592,3.5948,3.6114,3.6052,3.6065,3.6073,3.6483,3.6487,3.6489,0,0,0,0,0,0,3.4971,3.5013,3.5376,3.5223,3.5271,3.5415,3.5503,3.5526,3.559,3.5742,3.5769,3.5652,3.5891,3.5928,3.6079,3.6126,3.6071,3.6084,3.648,3.6484,3.6488,3.6446,0,0,0,0,0,0,3.4957,3.5008,3.5058,3.5223,3.5279,3.5501,3.5506,3.5534,3.5614,3.5619,3.5785,3.5811,3.5892,3.6057,3.6093,3.6144,3.6095,3.6476,3.6482,3.6487,3.6443,3.6448,3.6451,0,0,0,0,0,3.494,3.5035,3.506,3.5102,3.5344,3.5503,3.5535,3.5626,3.5617,3.567,3.5767,3.5806,3.6114,3.6072,3.6113,3.6169,3.6474,3.648,3.6486,3.6442,3.6447,3.6451,0,0,0,0,0,0,3.4872,3.5058,3.5088,3.5239,3.5355,3.5518,3.5587,3.5629,3.575,3.575,3.5858,3.5895,3.6038,3.6119,3.6068,3.6305,3.6296,3.631,3.6248,3.6254,3.6258,3.6236,3.6107,0,0,0,0,0,3.4874,3.4987,3.5144,3.5262,3.5318,3.5442,3.5515,3.5575,3.57,3.5749,3.5858,3.5979,3.6103,3.6183,3.6306,3.6455,3.6494,3.6514,3.6518,3.652,3.6532,3.6619,3.6631,3.651,3.651,3.651,0,0,3.4881,3.4996,3.5061,3.5251,3.5348,3.5464,3.5483,3.5604,3.5692,3.5768,3.5918,3.6002,3.6143,3.6294,3.6367,3.6366,3.6574,3.6528,3.6529,3.654,3.6627,3.6638,3.6648,3.6514,3.6513,3.6513,0,0,3.4952,3.505,3.516,3.5256,3.5402,3.5484,3.551,3.5668,3.5727,3.5878,3.5938,3.6044,3.6256,3.6355,3.6433,3.6542,3.6583,3.6579,3.66,3.6684,3.6693,3.6702,3.6743,3.6756,3.659,3.659,3.659,0,3.4942,3.5118,3.5211,3.533,3.5413,3.5486,3.56,3.5689,3.5867,3.5924,3.592,3.6188,3.6288,3.6464,3.6491,3.6551,3.6586,3.6561,3.6684,3.6694,3.6704,3.6744,3.6759,3.6589,3.6589,3.6589,3.6589,0,3.5099,3.522,3.5292,3.5462,3.5553,3.5668,3.578,3.5861,3.5913,3.5995,3.6149,3.6273,3.6422,3.6468,3.652,3.6652,3.6648,3.6662,3.6655,3.6713,3.6752,3.6768,3.6587,3.6587,3.6588,3.6588,0,0,3.5137,3.5357,3.5382,3.5461,3.5627,3.5723,3.5842,3.5988,3.6056,3.6177,3.6281,3.6458,3.6473,3.6561,3.6626,3.6698,3.6779,3.6705,3.671,3.6716,3.6934,3.6923,3.6939,3.6806,3.681,3.6812,3.6923,0,3.5231,3.5446,3.5534,3.5708,3.5822,3.5894,3.5998,3.6112,3.6193,3.6302,3.6392,3.6516,3.6526,3.658,3.6655,3.6753,3.6825,3.6746,3.6906,3.6911,3.687,3.696,3.6948,3.7047,3.6939,3.6942,3.6944,0,3.5369,3.549,3.5676,3.583,3.5881,3.5973,3.6114,3.6217,3.6349,3.6402,3.6501,3.6561,3.669,3.6673,3.6854,3.6799,3.6869,3.6927,3.6933,3.6953,3.6931,3.6984,3.708,3.7095,3.6969,3.6967,3.6965,0,3.538,3.5589,3.5728,3.5793,3.5976,3.6039,3.6118,3.6247,3.6329,3.6453,3.6508,3.6645,3.672,3.6825,3.6922,3.69,3.7094,3.7084,3.7144,3.7141,3.7183,3.7179,3.7293,3.7225,3.7224,3.7224,3.7224,0,3.5477,3.5588,3.5736,3.5821,3.5948,3.6049,3.6172,3.6257,3.6371,3.6475,3.6545,3.6642,3.6762,3.6874,3.695,3.7089,3.7123,3.7171,3.719,3.7166,3.716,3.7215,3.7211,3.7228,3.7227,3.7227,3.7226,0,3.551,3.5614,3.577,3.593,3.5973,3.606,3.6197,3.6284,3.6367,3.6498,3.6535,3.6666,3.6802,3.6908,3.7085,3.7136,3.7284,3.7304,3.7239,3.7249,3.7303,3.7297,3.7458,3.7485,3.7396,3.7397,3.7397,0,3.5566,3.5653,3.5822,3.5897,3.5975,3.6094,3.6178,3.6281,3.6366,3.6522,3.659,3.6731,3.6849,3.7063,3.7175,3.7311,3.7336,3.7384,3.7357,3.7331,3.7339,3.7334,3.7344,3.7387,3.7387,3.7388,3.7388,0,3.5654,3.5701,3.582,3.5956,3.6054,3.6167,3.6281,3.6338,3.6462,3.6554,3.6693,3.6785,3.6965,3.7105,3.7252,3.7336,3.7384,3.7395,3.7417,3.7393,3.7353,3.7377,3.7249,3.7391,3.7391,3.7391,3.7391,3.7391,3.5703,3.5784,3.5916,3.6046,3.6142,3.6248,3.6337,3.6432,3.6549,3.6704,3.6757,3.6901,3.7032,3.7235,3.7319,3.7434,3.7437,3.7467,3.7475,3.7481,3.748,3.7333,3.7461,3.7461,3.7461,3.7462,3.7462,0,3.5796,3.5885,3.6003,3.616,3.6263,3.6297,3.6425,3.6509,3.6635,3.6752,3.6867,3.7027,3.7163,3.7286,3.7427,3.7496,3.7522,3.753,3.7527,3.7546,3.7469,3.7437,3.7507,3.7507,3.7507,3.7507,3.7507,3.7507,3.5857,3.5997,3.606,3.6249,3.6338,3.6478,3.6549,3.6647,3.6741,3.6917,3.703,3.7109,3.7229,3.738,3.7507,3.7539,3.7589,3.7592,3.7631,3.7557,3.7551,3.7545,3.7516,3.7602,3.7602,3.7699,3.7699,3.77]}]]